Location: Central Coast
(33.3208°S, 151.2336°E)
Time: 06:11:45
(UTC+10:00)

Vanguard 2 - Visible Passes

Search period start: 17 August 2018 00:00
Search period end: 27 August 2018 00:00
Orbit: 554 x 2938 km, 32.9° (Epoch: 16 August)

Date Brightness Start Highest point End Pass type
(mag) Time Alt. Az. Time Alt. Az. Time Alt. Az.
17 Aug 10.9 02:00:47 20° ENE 02:00:47 20° ENE 02:02:58 10° ENE visible
17 Aug 9.9 04:02:14 37° NNW 04:02:14 37° NNW 04:09:50 10° NNE visible
17 Aug 10.4 19:17:26 10° NW 19:31:01 49° NE 19:37:13 38° ENE visible
17 Aug 10.4 21:26:28 10° WNW 21:38:39 60° NW 21:38:39 60° NW visible
17 Aug 11.8 23:38:39 10° W 23:40:05 14° W 23:40:05 14° W visible
18 Aug 10.8 02:17:59 23° NE 02:17:59 23° NE 02:20:52 10° NE visible
18 Aug 10.2 04:19:26 28° NW 04:19:26 28° NW 04:26:45 10° N visible
18 Aug 10.9 17:29:38 10° N 17:38:55 23° NE 17:50:34 10° E visible
18 Aug 10.2 19:34:53 10° NW 19:48:56 58° NNE 19:54:24 46° ENE visible
18 Aug 10.5 21:44:41 10° WNW 21:55:50 54° WNW 21:55:50 54° WNW visible
18 Aug 11.9 23:57:09 10° W 23:57:16 10° W 23:57:16 10° W visible
19 Aug 10.7 02:35:13 25° NE 02:35:13 25° NE 02:38:36 10° NE visible
19 Aug 10.5 04:36:39 20° NW 04:36:39 20° NW 04:43:05 10° N visible
19 Aug 10.7 17:45:59 10° NNW 17:56:25 31° NE 18:10:07 10° E visible
19 Aug 10.1 19:52:36 10° NW 20:07:00 67° NNE 20:11:32 54° ENE visible
19 Aug 10.7 22:03:00 10° W 22:12:58 48° W 22:12:58 48° W visible
20 Aug 10.6 02:52:28 25° NNE 02:52:28 25° NNE 02:56:05 10° NE visible
20 Aug 10.8 04:53:55 13° NW 04:53:55 13° NW 04:58:08 10° NNW visible
20 Aug 10.5 18:02:52 10° NNW 18:14:01 40° NE 18:27:12 14° E visible
20 Aug 10.1 20:10:30 10° WNW 20:25:13 75° NNE 20:28:37 64° ENE visible
20 Aug 10.9 22:21:22 10° W 22:30:03 41° W 22:30:03 41° W visible
21 Aug11.801:08:18ENE01:08:18ENE00:31:28WSWvisible
21 Aug 10.7 03:09:44 23° N 03:09:44 23° N 03:13:16 10° NNE visible
21 Aug 10.3 18:20:07 10° NW 18:31:45 50° NE 18:44:15 19° E visible
21 Aug 10.0 20:28:34 10° WNW 20:43:33 82° NNE 20:45:40 74° ENE visible
21 Aug 11.0 22:39:46 10° W 22:47:05 35° W 22:47:05 35° W visible
22 Aug11.701:25:34NE01:25:34NE00:48:31WSWvisible
22 Aug 10.8 03:27:01 19° N 03:27:01 19° N 03:30:05 10° N visible
22 Aug 10.1 18:37:39 10° NW 18:49:38 60° NNE 19:01:14 24° E visible
22 Aug 10.0 20:46:45 10° WNW 21:02:00 86° N 21:02:40 84° ENE visible
22 Aug 11.2 22:58:10 10° W 23:04:04 29° W 23:04:04 29° W visible
23 Aug 11.0 03:44:17 14° NNW 03:44:17 14° NNW 03:46:17 10° N visible
23 Aug 10.0 18:55:25 10° WNW 19:07:41 69° NNE 19:18:11 30° E visible
23 Aug 10.1 21:05:01 10° W 21:19:36 84° WNW 21:19:36 84° WNW visible
23 Aug 11.4 23:16:34 10° W 23:21:01 24° W 23:21:01 24° W visible
24 Aug 10.0 19:13:20 10° WNW 19:25:53 77° NNE 19:35:05 36° E visible
24 Aug 10.2 21:23:19 10° W 21:36:30 73° W 21:36:30 73° W visible
24 Aug 11.6 23:34:57 10° WSW 23:37:54 18° W 23:37:54 18° W visible
25 Aug 9.9 19:31:25 10° WNW 19:44:13 83° NNE 19:51:57 43° E visible
25 Aug 10.3 21:41:38 10° W 21:53:22 63° W 21:53:22 63° W visible
25 Aug 11.7 23:53:23 10° WSW 23:54:46 14° W 23:54:46 14° W visible
26 Aug 9.9 17:41:05 10° NW 17:50:58 61° NNE 18:06:37 10° ESE visible
26 Aug 9.9 19:49:33 10° W 20:02:37 87° N 20:08:48 51° E visible
26 Aug 10.5 21:59:56 10° W 22:10:11 53° W 22:10:11 53° W visible
